[[{"header":{"parameterUnit":"m.s-1","parameterCategory":2,"la1":30.2991,"la2":30.254,"lo1":-89.0895,"lo2":-89.0444,"dy":0.0017,"dx":0.0017,"nx":28,"ny":28,"refTime":"2024-06-19T21:00:00:Z","depth":"0","parameterNumber":2,"parameterNumberName":"U-component_of_CURRENTS"},"data":[0,0,0,0,0,0,0,0,0,0,0,0,0,0,0,0,0,0,0,0,0,0,0,0,0,0,0,0,0,0,0,0,0,0,0,0,0,0,0,0,0,0,0,0,0,0,0,0,0,0,0,0,0,0,0,0,0,0,0.2463,0.2463,0,0.246,0.2459,0.2459,0.2422,0.2421,0.2421,0.242,0.2315,0.2313,0.231,0,0,0,0,0,0,0,0,0,0,0,0,0,0.244,0.244,0.2463,0.2463,0.2464,0.246,0.2459,0.2459,0.2422,0.2421,0.2421,0.242,0.2316,0.2313,0.231,0,0,0,0,0,0,0,0,0,0,0,0,0,0.244,0.244,0.2463,0.2449,0.2448,0.246,0.2459,0.2459,0.2422,0.2421,0.2421,0.242,0.2317,0.2313,0.231,0.2302,0,0,0.2299,0.2298,0,0,0,0,0,0,0,0,0.244,0.244,0.245,0.245,0.2449,0.2445,0.2413,0.2403,0.2422,0.2426,0.242,0.242,0.2353,0.2346,0.2342,0.2297,0.2293,0.2299,0.2297,0.2295,0.2294,0,0,0,0,0,0,0,0.244,0.244,0.2456,0.2451,0.245,0.2444,0.2442,0.2411,0.2388,0.2426,0.2424,0.2432,0.2351,0.2345,0.2339,0.2291,0.2299,0.2296,0.2293,0.2292,0.2298,0.23,0,0,0,0,0,0,0.2451,0.244,0.2457,0.2457,0.2448,0.2445,0.2443,0.2443,0.239,0.2384,0.2433,0.2431,0.2352,0.2343,0.2335,0.2351,0.2295,0.2292,0.229,0.2296,0.2298,0.2301,0,0,0,0,0,0,0.2451,0.2452,0.2457,0.2453,0.2454,0.2447,0.2446,0.2443,0.2441,0.2398,0.2388,0.2435,0.2351,0.234,0.2322,0.2345,0.229,0.2287,0.2293,0.2296,0.2299,0.2365,0,0,0,0,0,0,0.245,0.2452,0.2457,0.2454,0.2455,0.2469,0.2447,0.2444,0.245,0.2446,0.2397,0.2386,0.2349,0.2328,0.2319,0.2339,0.2284,0.229,0.2294,0.2298,0.236,0.237,0.2379,0,0,0,0,0,0.2449,0.2455,0.2456,0.2459,0.246,0.247,0.2469,0.2459,0.2451,0.2453,0.2428,0.2388,0.2349,0.2326,0.2315,0.2335,0.2288,0.2293,0.2298,0.2355,0.2368,0.2379,0,0,0,0,0,0,0.2435,0.2453,0.2454,0.2462,0.247,0.2466,0.2473,0.2467,0.2451,0.2446,0.2401,0.2389,0.2382,0.236,0.2336,0.2357,0.2318,0.2321,0.2366,0.2377,0.2387,0.2394,0.2281,0,0,0,0,0,0.2441,0.2455,0.2466,0.2472,0.2482,0.2481,0.2485,0.2478,0.2467,0.246,0.2431,0.2411,0.2397,0.2387,0.2363,0.2367,0.2374,0.2382,0.2392,0.24,0.2403,0.2451,0.2465,0.2318,0.2317,0.2317,0,0,0.243,0.245,0.2451,0.2473,0.2479,0.2492,0.248,0.249,0.2496,0.245,0.2447,0.243,0.2404,0.2408,0.2406,0.2391,0.245,0.2406,0.2413,0.2411,0.2458,0.2472,0.2484,0.2321,0.232,0.232,0,0,0.2422,0.2444,0.2451,0.2469,0.2493,0.2504,0.2511,0.2515,0.2515,0.2516,0.2492,0.2499,0.2467,0.2467,0.2459,0.2512,0.2492,0.251,0.2565,0.2612,0.2624,0.2634,0.2677,0.269,0.2523,0.2523,0.2523,0,0.2409,0.2424,0.2453,0.247,0.2489,0.2512,0.2521,0.2532,0.2528,0.2535,0.2522,0.2525,0.2499,0.2522,0.2545,0.2531,0.2554,0.2516,0.2623,0.2634,0.2643,0.2684,0.2698,0.2527,0.2527,0.2526,0.2526,0,0.2407,0.2421,0.2433,0.2469,0.2493,0.251,0.254,0.2559,0.2572,0.2579,0.2604,0.2594,0.2598,0.2605,0.2584,0.2649,0.2643,0.2621,0.2589,0.2662,0.27,0.2714,0.2532,0.2531,0.253,0.2529,0,0,0.2341,0.2418,0.2412,0.243,0.2496,0.2505,0.2552,0.259,0.2614,0.2634,0.2665,0.2676,0.2685,0.2681,0.2677,0.2726,0.2817,0.2711,0.2712,0.2744,0.2929,0.2929,0.2944,0.2817,0.282,0.2822,0.2933,0,0.232,0.2362,0.2404,0.2426,0.2449,0.2506,0.2546,0.2587,0.2627,0.2665,0.2698,0.2717,0.2711,0.2722,0.2775,0.2796,0.2855,0.2789,0.2861,0.2863,0.2847,0.296,0.2845,0.2935,0.2946,0.2948,0.295,0,0.2271,0.2322,0.2352,0.2419,0.2432,0.2452,0.253,0.2566,0.2647,0.268,0.2737,0.2758,0.2832,0.2814,0.2923,0.2884,0.2917,0.2943,0.2947,0.2931,0.2889,0.2863,0.2959,0.2927,0.2971,0.2969,0.2967,0,0.219,0.2258,0.2291,0.2313,0.2405,0.2423,0.2474,0.2561,0.2594,0.2693,0.273,0.2821,0.2865,0.2934,0.3001,0.2967,0.3124,0.3074,0.3112,0.3112,0.3019,0.3006,0.3081,0.3163,0.3163,0.3163,0.3162,0,0.2132,0.2134,0.2254,0.2257,0.2287,0.2375,0.2408,0.2472,0.2574,0.262,0.2724,0.279,0.2901,0.2997,0.304,0.314,0.3162,0.3151,0.3154,0.3041,0.303,0.2999,0.2939,0.3167,0.3166,0.3165,0.3165,0,0.1998,0.2081,0.2104,0.2212,0.2234,0.225,0.2342,0.2383,0.2497,0.2567,0.2602,0.2781,0.2929,0.3037,0.317,0.3191,0.3203,0.3299,0.3165,0.3151,0.3129,0.3075,0.306,0.2953,0.3352,0.3353,0.3354,0,0.193,0.1941,0.2036,0.2058,0.2092,0.2143,0.2184,0.231,0.2364,0.2558,0.2586,0.2779,0.2902,0.3126,0.3232,0.3349,0.324,0.3282,0.3193,0.3149,0.3092,0.2993,0.2894,0.3099,0.3098,0.3097,0.3096,0,0.1808,0.1846,0.1881,0.1938,0.1972,0.2012,0.2083,0.2123,0.2289,0.2363,0.2519,0.2646,0.2922,0.3042,0.3231,0.3272,0.3135,0.3262,0.3246,0.2941,0.2805,0.2695,0.3007,0.3086,0.3087,0.3087,0.3088,0.3088,0.1709,0.171,0.178,0.181,0.1853,0.1893,0.1885,0.1989,0.2057,0.2167,0.2374,0.2505,0.279,0.3066,0.3112,0.3162,0.3107,0.3076,0.3031,0.295,0.2796,0.31,0.3163,0.3164,0.3166,0.3167,0.3168,0,0.161,0.1635,0.166,0.1694,0.1689,0.1758,0.1818,0.1803,0.1837,0.201,0.2115,0.2381,0.2576,0.28,0.3001,0.294,0.2815,0.2876,0.2693,0.2613,0.2928,0.2868,0.2832,0.2832,0.2832,0.2832,0.2832,0.2832,0.1564,0.1556,0.1574,0.1532,0.1548,0.1499,0.151,0.1511,0.1599,0.1712,0.1848,0.2017,0.2416,0.2793,0.2873,0.2802,0.258,0.2516,0.2494,0.2717,0.2731,0.2744,0.268,0.2605,0.2605,0.2089,0.2085,0.2082]},{"header":{"parameterUnit":"m.s-1","parameterCategory":2,"la1":30.2991,"la2":30.254,"lo1":-89.0895,"lo2":-89.0444,"dy":0.0017,"dx":0.0017,"nx":28,"ny":28,"refTime":"2024-06-19T21:00:00:Z","depth":"0","parameterNumber":3,"parameterNumberName":"V-component_of_CURRENTS"},"data":[0,0,0,0,0,0,0,0,0,0,0,0,0,0,0,0,0,0,0,0,0,0,0,0,0,0,0,0,0,0,0,0,0,0,0,0,0,0,0,0,0,0,0,0,0,0,0,0,0,0,0,0,0,0,0,0,0,0,-0.0584,-0.0585,0,-0.0636,-0.0637,-0.0638,-0.0675,-0.0675,-0.0675,-0.0676,-0.0832,-0.0836,-0.084,0,0,0,0,0,0,0,0,0,0,0,0,0,-0.0531,-0.0531,-0.0584,-0.0585,-0.0585,-0.0636,-0.0637,-0.0638,-0.0675,-0.0675,-0.0676,-0.0676,-0.0831,-0.0836,-0.0841,0,0,0,0,0,0,0,0,0,0,0,0,0,-0.0567,-0.0532,-0.0584,-0.0609,-0.0612,-0.0636,-0.0637,-0.0638,-0.0675,-0.0675,-0.0676,-0.0676,-0.083,-0.0835,-0.0841,-0.0872,0,0,-0.086,-0.0862,0,0,0,0,0,0,0,0,-0.0564,-0.0569,-0.0605,-0.0607,-0.061,-0.0648,-0.0675,-0.0721,-0.0675,-0.0652,-0.0676,-0.0676,-0.078,-0.079,-0.0799,-0.088,-0.0886,-0.086,-0.0864,-0.0866,-0.0868,0,0,0,0,0,0,0,-0.0562,-0.0567,-0.0606,-0.0605,-0.0609,-0.0622,-0.0628,-0.0684,-0.0717,-0.0654,-0.0657,-0.0661,-0.0782,-0.0793,-0.0803,-0.0889,-0.086,-0.0865,-0.0869,-0.0871,-0.0968,-0.0968,0,0,0,0,0,0,-0.0552,-0.0564,-0.0605,-0.0608,-0.0586,-0.0623,-0.0629,-0.0637,-0.0714,-0.0725,-0.066,-0.0662,-0.0783,-0.0796,-0.0809,-0.0847,-0.0866,-0.0872,-0.0875,-0.0969,-0.0968,-0.0967,0,0,0,0,0,0,-0.0551,-0.0555,-0.0602,-0.0586,-0.0593,-0.0623,-0.0632,-0.0638,-0.0648,-0.0717,-0.073,-0.0664,-0.0783,-0.0801,-0.0841,-0.0853,-0.0875,-0.088,-0.0971,-0.0969,-0.0968,-0.0925,0,0,0,0,0,0,-0.0549,-0.0555,-0.0555,-0.0585,-0.0593,-0.0609,-0.0632,-0.0639,-0.0649,-0.0652,-0.0725,-0.0739,-0.0785,-0.0831,-0.0847,-0.0862,-0.0885,-0.0972,-0.097,-0.0968,-0.0928,-0.0922,-0.0918,0,0,0,0,0,-0.0547,-0.0541,-0.0555,-0.0559,-0.0593,-0.0609,-0.0614,-0.0638,-0.0649,-0.0649,-0.0688,-0.0737,-0.083,-0.0835,-0.0854,-0.0871,-0.0973,-0.0971,-0.0968,-0.093,-0.0923,-0.0918,0,0,0,0,0,0,-0.0508,-0.0545,-0.0561,-0.0564,-0.0583,-0.0614,-0.0613,-0.0633,-0.0663,-0.0665,-0.0731,-0.0748,-0.0784,-0.0824,-0.0828,-0.0887,-0.0908,-0.0909,-0.0872,-0.0867,-0.0862,-0.0834,-0.089,0,0,0,0,0,-0.0502,-0.0509,-0.0544,-0.0542,-0.0552,-0.0583,-0.0592,-0.0608,-0.0638,-0.0651,-0.0703,-0.075,-0.0789,-0.0823,-0.0862,-0.0905,-0.0925,-0.0923,-0.0918,-0.0913,-0.0899,-0.093,-0.0927,-0.096,-0.096,-0.096,0,0,-0.0483,-0.0504,-0.0506,-0.0535,-0.0552,-0.0562,-0.0589,-0.0595,-0.0604,-0.0666,-0.0695,-0.0735,-0.0791,-0.0828,-0.085,-0.0868,-0.0912,-0.091,-0.0907,-0.0895,-0.0927,-0.0924,-0.0922,-0.0958,-0.0958,-0.0959,0,0,-0.0454,-0.047,-0.0474,-0.0488,-0.0513,-0.0534,-0.0534,-0.057,-0.0586,-0.0615,-0.0655,-0.069,-0.0765,-0.0802,-0.0831,-0.082,-0.0876,-0.0841,-0.0812,-0.0843,-0.0841,-0.0839,-0.0855,-0.0855,-0.085,-0.0849,-0.0849,0,-0.0434,-0.0441,-0.0473,-0.048,-0.0482,-0.052,-0.0517,-0.0541,-0.0584,-0.0595,-0.0615,-0.0692,-0.0748,-0.0786,-0.0783,-0.0813,-0.0832,-0.0838,-0.0837,-0.0836,-0.0835,-0.0852,-0.0853,-0.0847,-0.0847,-0.0848,-0.0848,0,-0.0409,-0.0416,-0.0413,-0.044,-0.0448,-0.0444,-0.0481,-0.0496,-0.0522,-0.0551,-0.0584,-0.0644,-0.0688,-0.0718,-0.0755,-0.0778,-0.0793,-0.0821,-0.0856,-0.083,-0.0849,-0.085,-0.0844,-0.0845,-0.0845,-0.0846,0,0,-0.0363,-0.0393,-0.039,-0.0392,-0.0421,-0.0421,-0.0436,-0.0458,-0.0458,-0.051,-0.0514,-0.0588,-0.0616,-0.0647,-0.07,-0.0736,-0.0755,-0.0776,-0.0779,-0.0795,-0.0813,-0.0791,-0.0791,-0.0791,-0.0791,-0.0791,-0.0827,0,-0.0334,-0.0328,-0.0355,-0.0341,-0.0339,-0.0371,-0.0376,-0.04,-0.043,-0.0447,-0.0507,-0.0533,-0.0592,-0.061,-0.0654,-0.0724,-0.0758,-0.0742,-0.0831,-0.0833,-0.0821,-0.0792,-0.0774,-0.0802,-0.0829,-0.0829,-0.083,0,-0.0304,-0.0301,-0.0281,-0.0288,-0.0288,-0.0288,-0.0288,-0.0297,-0.0336,-0.0361,-0.04,-0.0445,-0.0499,-0.0549,-0.0652,-0.0641,-0.0716,-0.0774,-0.0778,-0.0771,-0.0814,-0.0833,-0.0804,-0.0969,-0.0832,-0.0832,-0.0832,0,-0.0247,-0.0252,-0.0226,-0.0225,-0.0239,-0.0234,-0.0241,-0.0268,-0.0258,-0.0301,-0.0297,-0.0375,-0.0395,-0.0499,-0.0613,-0.0639,-0.0717,-0.0772,-0.082,-0.082,-0.0826,-0.0825,-0.0968,-0.0838,-0.0838,-0.0838,-0.0838,0,-0.0205,-0.0185,-0.0195,-0.018,-0.014,-0.0173,-0.014,-0.0165,-0.0173,-0.0139,-0.0241,-0.0227,-0.0383,-0.0447,-0.0575,-0.0682,-0.0688,-0.0797,-0.0824,-0.0808,-0.0805,-0.0966,-0.1047,-0.0839,-0.0839,-0.0839,-0.0838,0,-0.0147,-0.0156,-0.0128,-0.0125,-0.0116,-0.0085,-0.0067,-0.0042,-0.0068,-0.0025,-0.0029,-0.0106,-0.0186,-0.0335,-0.049,-0.061,-0.0827,-0.0773,-0.0731,-0.0752,-0.0955,-0.1032,-0.1202,-0.1317,-0.0838,-0.0837,-0.0837,0,-0.0113,-0.0091,-0.0069,-0.0038,-0.0036,0.0003,0.0035,0.0016,0.005,0.0063,0.0097,0.0035,0.0018,-0.02,-0.0418,-0.0616,-0.0801,-0.0749,-0.0797,-0.0947,-0.1055,-0.1152,-0.1245,-0.0794,-0.0793,-0.0793,-0.0792,0,-0.0043,-0.0039,-0.0012,0.005,0.0087,0.0136,0.0177,0.0221,0.0227,0.0269,0.0323,0.0316,0.012,-0.006,-0.034,-0.0503,-0.0877,-0.0743,-0.0922,-0.1037,-0.113,-0.1258,-0.0786,-0.0787,-0.0788,-0.0788,-0.0789,-0.0789,0.002,0.0052,0.0086,0.0146,0.0196,0.0264,0.0305,0.0367,0.0449,0.0509,0.0504,0.0517,0.0246,-0.0127,-0.0371,-0.0808,-0.0848,-0.0954,-0.1036,-0.1122,-0.1232,-0.073,-0.0746,-0.0747,-0.0747,-0.0747,-0.0747,0,0.0099,0.0124,0.0183,0.0243,0.0304,0.0314,0.04,0.0442,0.0551,0.0629,0.0679,0.0586,0.0235,-0.0161,-0.0707,-0.1037,-0.1233,-0.1236,-0.1393,-0.1479,-0.1046,-0.1043,-0.1095,-0.1095,-0.1095,-0.1095,-0.1094,-0.1094,0.0141,0.0199,0.0217,0.0323,0.0371,0.0437,0.0482,0.0561,0.0624,0.0709,0.0737,0.0724,0.0472,-0.0467,-0.1216,-0.1391,-0.1684,-0.1703,-0.1887,-0.1597,-0.1578,-0.1561,-0.158,-0.1743,-0.1744,-0.2318,-0.2323,-0.2327]}],[{"header":{"parameterUnit":"m.s-1","parameterCategory":2,"la1":30.2991,"la2":30.254,"lo1":-89.0895,"lo2":-89.0444,"dy":0.0017,"dx":0.0017,"nx":28,"ny":28,"refTime":"2024-06-19T21:00:00:Z","depth":"2","parameterNumber":2,"parameterNumberName":"U-component_of_CURRENTS"},"data":[0,0,0,0,0,0,0,0,0,0,0,0,0,0,0,0,0,0,0,0,0,0,0,0,0,0,0,0,0,0,0,0,0,0,0,0,0,0,0,0,0,0,0,0,0,0,0,0,0,0,0,0,0,0,0,0,0,0,0.2501,0.2501,0,0.2498,0.2498,0.2498,0.2462,0.2461,0.2461,0.246,0.2354,0.2352,0.235,0,0,0,0,0,0,0,0,0,0,0,0,0,0.2478,0.2478,0.25,0.2501,0.2501,0.2498,0.2498,0.2497,0.2462,0.2461,0.2461,0.246,0.2355,0.2352,0.2349,0,0,0,0,0,0,0,0,0,0,0,0,0,0.2478,0.2478,0.25,0.2487,0.2486,0.2499,0.2498,0.2497,0.2462,0.2461,0.246,0.246,0.2356,0.2353,0.2349,0.2341,0,0,0.2338,0.2337,0,0,0,0,0,0,0,0,0.2478,0.2478,0.2488,0.2488,0.2487,0.2484,0.2452,0.2442,0.2462,0.2466,0.246,0.2459,0.2392,0.2385,0.2381,0.2336,0.2332,0.2338,0.2336,0.2334,0.2333,0,0,0,0,0,0,0,0.2478,0.2479,0.2495,0.2489,0.2488,0.2483,0.2481,0.245,0.2427,0.2465,0.2464,0.2472,0.239,0.2385,0.2378,0.233,0.2338,0.2335,0.2333,0.2331,0.2338,0.234,0,0,0,0,0,0,0.2489,0.2479,0.2495,0.2495,0.2486,0.2484,0.2482,0.2481,0.243,0.2423,0.2472,0.247,0.2391,0.2382,0.2374,0.239,0.2334,0.2331,0.2329,0.2336,0.2339,0.2341,0,0,0,0,0,0,0.2488,0.249,0.2495,0.2491,0.2492,0.2485,0.2485,0.2482,0.248,0.2437,0.2427,0.2475,0.239,0.2379,0.2362,0.2384,0.2329,0.2326,0.2333,0.2337,0.234,0.2403,0,0,0,0,0,0,0.2487,0.2489,0.2494,0.2492,0.2493,0.2507,0.2486,0.2483,0.2488,0.2485,0.2436,0.2425,0.2389,0.2368,0.2359,0.2378,0.2323,0.233,0.2335,0.2339,0.2398,0.2409,0.2417,0,0,0,0,0,0.2486,0.2493,0.2494,0.2496,0.2498,0.2508,0.2508,0.2498,0.2489,0.2492,0.2468,0.2427,0.239,0.2366,0.2355,0.2374,0.2328,0.2333,0.2339,0.2394,0.2407,0.2417,0,0,0,0,0,0,0.2473,0.2491,0.2491,0.2499,0.2508,0.2504,0.2512,0.2506,0.2491,0.2485,0.2441,0.2429,0.2422,0.24,0.2376,0.2397,0.2359,0.2362,0.2405,0.2416,0.2425,0.2433,0.232,0,0,0,0,0,0.2478,0.2492,0.2503,0.251,0.252,0.2518,0.2523,0.2516,0.2506,0.2499,0.247,0.245,0.2437,0.2427,0.2404,0.2408,0.2415,0.2422,0.2432,0.244,0.2443,0.2492,0.2505,0.2358,0.2358,0.2358,0,0,0.2467,0.2487,0.2488,0.251,0.2516,0.2529,0.2518,0.2528,0.2535,0.2488,0.2487,0.247,0.2445,0.2449,0.2447,0.2432,0.249,0.2446,0.2453,0.2452,0.2498,0.2513,0.2525,0.2362,0.2361,0.2361,0,0,0.246,0.2482,0.2489,0.2507,0.2532,0.2541,0.2549,0.2553,0.2553,0.2555,0.2532,0.2538,0.2507,0.2507,0.25,0.2554,0.2533,0.2552,0.2605,0.2653,0.2665,0.2675,0.2717,0.2731,0.2564,0.2564,0.2564,0,0.2447,0.2461,0.2491,0.251,0.2528,0.255,0.2559,0.257,0.2567,0.2574,0.2561,0.2564,0.2539,0.2563,0.2586,0.2572,0.2596,0.2556,0.2664,0.2674,0.2684,0.2724,0.2738,0.2568,0.2567,0.2567,0.2567,0,0.2447,0.2461,0.2473,0.2509,0.2534,0.255,0.258,0.2599,0.261,0.2617,0.2643,0.2633,0.2638,0.2645,0.2625,0.2689,0.2683,0.2662,0.2629,0.2702,0.2741,0.2754,0.2573,0.2572,0.2571,0.257,0,0,0.2379,0.2458,0.2453,0.2471,0.2537,0.2546,0.2593,0.2628,0.2652,0.2672,0.2704,0.2715,0.2724,0.2721,0.2716,0.2766,0.2857,0.2751,0.2752,0.2783,0.2969,0.2951,0.2964,0.2857,0.2859,0.2861,0.2972,0,0.2358,0.2403,0.2446,0.2467,0.2491,0.2547,0.2587,0.2628,0.2666,0.2705,0.2737,0.2757,0.2751,0.2761,0.2814,0.2835,0.2894,0.2828,0.2901,0.2903,0.2871,0.298,0.2711,0.2786,0.2985,0.2987,0.2989,0,0.2311,0.2362,0.2394,0.246,0.2473,0.2493,0.2569,0.2606,0.2687,0.2719,0.2777,0.2798,0.2872,0.2853,0.2962,0.2923,0.2956,0.2982,0.2986,0.2954,0.2912,0.2744,0.2804,0.3012,0.301,0.3008,0.3007,0,0.2228,0.2298,0.233,0.2354,0.2446,0.2464,0.2512,0.2599,0.2633,0.2732,0.2769,0.286,0.2904,0.2973,0.304,0.3006,0.3163,0.3114,0.3137,0.3135,0.2912,0.2887,0.3203,0.3203,0.3203,0.3203,0.3202,0,0.2169,0.2171,0.2292,0.2297,0.2325,0.2415,0.2446,0.251,0.2612,0.2658,0.2763,0.2829,0.2939,0.3036,0.308,0.317,0.3202,0.3173,0.3175,0.2929,0.2906,0.3093,0.3078,0.3207,0.3206,0.3205,0.3204,0,0.2033,0.2117,0.2141,0.225,0.2272,0.2287,0.2379,0.242,0.2534,0.2605,0.264,0.2819,0.2966,0.3075,0.3207,0.3219,0.3299,0.3319,0.3031,0.2999,0.3224,0.3212,0.3348,0.3349,0.335,0.335,0.335,0,0.1965,0.1977,0.2073,0.2094,0.2128,0.2179,0.222,0.2347,0.2401,0.2595,0.2624,0.2815,0.2936,0.3151,0.322,0.3322,0.3354,0.3117,0.3003,0.3258,0.3246,0.3233,0.322,0.2731,0.2726,0.2722,0.2719,0,0.1842,0.1881,0.1916,0.1974,0.2007,0.2047,0.2119,0.2158,0.2325,0.2405,0.2562,0.2686,0.292,0.294,0.3101,0.3117,0.3078,0.3043,0.3391,0.2748,0.2688,0.2672,0.2677,0.2685,0.2688,0.2691,0.2693,0.2694,0.1742,0.1744,0.1815,0.1845,0.1888,0.1928,0.1919,0.2064,0.2144,0.2296,0.2434,0.2557,0.2654,0.2799,0.2763,0.2763,0.2982,0.283,0.2836,0.2848,0.2769,0.2714,0.2701,0.2704,0.2707,0.271,0.2712,0,0.1669,0.1668,0.1694,0.1728,0.1754,0.1792,0.1853,0.1901,0.1997,0.2177,0.2294,0.2199,0.2237,0.2344,0.2299,0.2347,0.2267,0.2241,0.2079,0.2119,0.2153,0.203,0.1771,0.1767,0.1764,0.1761,0,0,0.1629,0.1633,0.1652,0.1627,0.162,0.1629,0.1641,0.1738,0.1867,0.1993,0.203,0.2193,0.23,0.1987,0.1969,0.1855,0.1964,0.1793,0.2559,0.241,0.2439,0.2522,0.2385,0,0,0,0,0]},{"header":{"parameterUnit":"m.s-1","parameterCategory":2,"la1":30.2991,"la2":30.254,"lo1":-89.0895,"lo2":-89.0444,"dy":0.0017,"dx":0.0017,"nx":28,"ny":28,"refTime":"2024-06-19T21:00:00:Z","depth":"2","parameterNumber":3,"parameterNumberName":"V-component_of_CURRENTS"},"data":[0,0,0,0,0,0,0,0,0,0,0,0,0,0,0,0,0,0,0,0,0,0,0,0,0,0,0,0,0,0,0,0,0,0,0,0,0,0,0,0,0,0,0,0,0,0,0,0,0,0,0,0,0,0,0,0,0,0,-0.0582,-0.0583,0,-0.0633,-0.0634,-0.0634,-0.0672,-0.0672,-0.0672,-0.0672,-0.0831,-0.0835,-0.0839,0,0,0,0,0,0,0,0,0,0,0,0,0,-0.053,-0.0531,-0.0582,-0.0583,-0.0583,-0.0633,-0.0634,-0.0635,-0.0672,-0.0672,-0.0672,-0.0672,-0.083,-0.0834,-0.0839,0,0,0,0,0,0,0,0,0,0,0,0,0,-0.0565,-0.0531,-0.0582,-0.0607,-0.0609,-0.0633,-0.0634,-0.0635,-0.0672,-0.0672,-0.0672,-0.0672,-0.0828,-0.0834,-0.084,-0.0872,0,0,-0.0858,-0.0861,0,0,0,0,0,0,0,0,-0.0563,-0.0567,-0.0603,-0.0605,-0.0608,-0.0645,-0.0673,-0.0719,-0.0671,-0.065,-0.0672,-0.0672,-0.0778,-0.0788,-0.0797,-0.0879,-0.0886,-0.0859,-0.0863,-0.0865,-0.0867,0,0,0,0,0,0,0,-0.0561,-0.0565,-0.0604,-0.0603,-0.0606,-0.0619,-0.0624,-0.0682,-0.0715,-0.0651,-0.0654,-0.0657,-0.078,-0.0791,-0.0802,-0.0889,-0.0859,-0.0864,-0.0868,-0.087,-0.0968,-0.0967,0,0,0,0,0,0,-0.055,-0.0563,-0.0602,-0.0605,-0.0584,-0.062,-0.0626,-0.0634,-0.0712,-0.0722,-0.0657,-0.0658,-0.0781,-0.0794,-0.0808,-0.0846,-0.0865,-0.0871,-0.0874,-0.0969,-0.0967,-0.0966,0,0,0,0,0,0,-0.0549,-0.0554,-0.06,-0.0584,-0.059,-0.062,-0.0629,-0.0635,-0.0645,-0.0714,-0.0727,-0.0661,-0.0781,-0.0799,-0.0839,-0.0853,-0.0874,-0.0879,-0.097,-0.0968,-0.0967,-0.0926,0,0,0,0,0,0,-0.0548,-0.0553,-0.0553,-0.0583,-0.0591,-0.0607,-0.0629,-0.0636,-0.0646,-0.0649,-0.0722,-0.0737,-0.0783,-0.0829,-0.0845,-0.0861,-0.0884,-0.0971,-0.0969,-0.0967,-0.0929,-0.0923,-0.0919,0,0,0,0,0,-0.0546,-0.0539,-0.0553,-0.0558,-0.0591,-0.0606,-0.0611,-0.0634,-0.0646,-0.0646,-0.0684,-0.0735,-0.0828,-0.0833,-0.0852,-0.0871,-0.0972,-0.097,-0.0968,-0.0931,-0.0925,-0.0919,0,0,0,0,0,0,-0.0507,-0.0543,-0.0559,-0.0562,-0.0581,-0.0612,-0.061,-0.063,-0.0659,-0.0662,-0.0728,-0.0745,-0.0782,-0.0822,-0.0827,-0.0886,-0.0906,-0.0908,-0.0872,-0.0867,-0.0862,-0.0833,-0.0889,0,0,0,0,0,-0.0501,-0.0509,-0.0543,-0.0541,-0.0551,-0.0581,-0.0589,-0.0605,-0.0635,-0.0648,-0.07,-0.0747,-0.0787,-0.0821,-0.0859,-0.0904,-0.0923,-0.0922,-0.0917,-0.0913,-0.0898,-0.0929,-0.0926,-0.0958,-0.0958,-0.0959,0,0,-0.0482,-0.0503,-0.0505,-0.0533,-0.055,-0.056,-0.0587,-0.0593,-0.0602,-0.0663,-0.0692,-0.0732,-0.0788,-0.0826,-0.0848,-0.0866,-0.0911,-0.091,-0.0906,-0.0893,-0.0926,-0.0923,-0.092,-0.0957,-0.0957,-0.0957,0,0,-0.0452,-0.0469,-0.0474,-0.0487,-0.0511,-0.0532,-0.0533,-0.0568,-0.0584,-0.0613,-0.0652,-0.0687,-0.0763,-0.08,-0.0829,-0.0818,-0.0875,-0.0839,-0.0811,-0.0841,-0.0839,-0.0838,-0.0854,-0.0854,-0.0848,-0.0848,-0.0848,0,-0.0433,-0.044,-0.0472,-0.0478,-0.048,-0.0519,-0.0516,-0.054,-0.0582,-0.0593,-0.0613,-0.069,-0.0746,-0.0784,-0.078,-0.0811,-0.083,-0.0837,-0.0836,-0.0835,-0.0834,-0.0851,-0.0852,-0.0846,-0.0846,-0.0846,-0.0847,0,-0.0407,-0.0415,-0.0411,-0.0438,-0.0446,-0.0442,-0.0479,-0.0494,-0.0521,-0.0549,-0.0582,-0.0642,-0.0686,-0.0716,-0.0753,-0.0777,-0.0792,-0.082,-0.0855,-0.0829,-0.0848,-0.0849,-0.0843,-0.0843,-0.0844,-0.0845,0,0,-0.0362,-0.0392,-0.0389,-0.0391,-0.042,-0.0419,-0.0434,-0.0457,-0.0458,-0.0509,-0.0513,-0.0586,-0.0614,-0.0645,-0.0698,-0.0735,-0.0755,-0.0775,-0.0778,-0.0795,-0.0812,-0.0778,-0.0777,-0.0791,-0.0791,-0.0791,-0.0827,0,-0.0334,-0.0326,-0.0353,-0.034,-0.0337,-0.037,-0.0375,-0.0398,-0.0429,-0.0446,-0.0506,-0.0531,-0.059,-0.0608,-0.0653,-0.0723,-0.0757,-0.0741,-0.083,-0.0832,-0.0809,-0.0776,-0.0741,-0.0766,-0.0829,-0.0829,-0.0829,0,-0.0303,-0.03,-0.0279,-0.0286,-0.0287,-0.0287,-0.0288,-0.0297,-0.0336,-0.036,-0.0398,-0.0444,-0.0498,-0.0548,-0.0651,-0.064,-0.0715,-0.0774,-0.0777,-0.0757,-0.08,-0.0803,-0.0767,-0.0832,-0.0832,-0.0832,-0.0832,0,-0.0246,-0.0251,-0.0225,-0.0224,-0.0238,-0.0233,-0.0241,-0.0267,-0.0257,-0.03,-0.0297,-0.0373,-0.0394,-0.0498,-0.0612,-0.0638,-0.0716,-0.0771,-0.0808,-0.0807,-0.0797,-0.0793,-0.0837,-0.0837,-0.0837,-0.0837,-0.0837,0,-0.0205,-0.0185,-0.0195,-0.0179,-0.014,-0.0172,-0.0139,-0.0164,-0.0172,-0.0139,-0.024,-0.0226,-0.0382,-0.0446,-0.0574,-0.0673,-0.0687,-0.0782,-0.0808,-0.0779,-0.0774,-0.085,-0.0851,-0.0838,-0.0838,-0.0837,-0.0837,0,-0.0147,-0.0156,-0.0127,-0.0125,-0.0115,-0.0085,-0.0067,-0.0042,-0.0068,-0.0025,-0.0028,-0.0106,-0.0184,-0.0333,-0.0488,-0.06,-0.0719,-0.0756,-0.0698,-0.0715,-0.0805,-0.0803,-0.0806,-0.0805,-0.0804,-0.0803,-0.0803,0,-0.0113,-0.0091,-0.0069,-0.0038,-0.0036,0.0003,0.0035,0.0016,0.005,0.0063,0.0097,0.0036,0.0017,-0.0193,-0.0401,-0.0594,-0.0657,-0.0695,-0.0738,-0.0773,-0.0799,-0.0799,-0.0799,-0.0717,-0.0715,-0.0714,-0.0714,0,-0.0043,-0.0039,-0.0012,0.005,0.0087,0.0136,0.0177,0.022,0.0227,0.0265,0.0319,0.031,0.0124,-0.0053,-0.032,-0.0461,-0.0662,-0.0678,-0.0732,-0.0718,-0.0689,-0.0714,-0.0717,-0.0704,-0.0705,-0.0706,-0.0706,-0.0707,0.002,0.0052,0.0085,0.0146,0.0195,0.0263,0.0304,0.0343,0.0418,0.0443,0.0467,0.0424,0.0251,-0.0099,-0.0294,-0.0545,-0.0571,-0.0679,-0.0683,-0.0688,-0.0659,-0.0628,-0.0627,-0.0627,-0.0627,-0.0628,-0.0628,0,0.0095,0.0123,0.0182,0.0242,0.0295,0.0313,0.0399,0.0412,0.0485,0.0503,0.0525,0.039,0.0209,-0.002,-0.0363,-0.0548,-0.059,-0.0615,-0.063,-0.0637,-0.0644,-0.0614,-0.057,-0.0571,-0.0571,-0.0571,0,0,0.0136,0.0192,0.021,0.0309,0.036,0.0408,0.0453,0.0477,0.0479,0.0491,0.0465,0.0423,0.0227,0.0002,-0.0228,-0.0413,-0.05,-0.0455,-0.0484,-0.0483,-0.0488,-0.066,-0.0619,0,0,0,0,0]}],[{"header":{"parameterUnit":"m.s-1","parameterCategory":2,"la1":30.2991,"la2":30.254,"lo1":-89.0895,"lo2":-89.0444,"dy":0.0017,"dx":0.0017,"nx":28,"ny":28,"refTime":"2024-06-19T21:00:00:Z","depth":"4","parameterNumber":2,"parameterNumberName":"U-component_of_CURRENTS"},"data":[0,0,0,0,0,0,0,0,0,0,0,0,0,0,0,0,0,0,0,0,0,0,0,0,0,0,0,0,0,0,0,0,0,0,0,0,0,0,0,0,0,0,0,0,0,0,0,0,0,0,0,0,0,0,0,0,0,0,0.1693,0.1693,0,0.1711,0.1711,0.1711,0.1755,0.1756,0.1757,0.1758,0.1839,0.184,0.1841,0,0,0,0,0,0,0,0,0,0,0,0,0,0.1647,0.1648,0.1693,0.1693,0.1693,0.1711,0.1711,0.1711,0.1755,0.1756,0.1758,0.1759,0.1838,0.184,0.1841,0,0,0,0,0,0,0,0,0,0,0,0,0,0.1665,0.1648,0.1693,0.1718,0.1721,0.1711,0.1711,0.1712,0.1755,0.1757,0.1758,0.1759,0.1838,0.184,0.1841,0.1822,0,0,0.1847,0.1848,0,0,0,0,0,0,0,0,0.1664,0.1667,0.1714,0.1716,0.1719,0.1733,0.1725,0.1752,0.1755,0.1741,0.1758,0.176,0.1809,0.1813,0.1811,0.1826,0.1829,0.1847,0.1848,0.1849,0.1849,0,0,0,0,0,0,0,0.1663,0.1666,0.1699,0.1714,0.1717,0.1712,0.1717,0.173,0.1766,0.1742,0.1746,0.1749,0.1811,0.1809,0.1813,0.1831,0.1847,0.1849,0.185,0.185,0.1946,0.1948,0,0,0,0,0,0,0.1664,0.1665,0.1698,0.17,0.1696,0.1712,0.1717,0.1726,0.1765,0.1772,0.1747,0.1751,0.1805,0.1811,0.1816,0.1904,0.1849,0.1851,0.1852,0.1945,0.1947,0.1948,0,0,0,0,0,0,0.1663,0.1667,0.1698,0.1683,0.1687,0.1712,0.1721,0.1726,0.1761,0.1769,0.1777,0.1782,0.1806,0.1814,0.1862,0.1904,0.1851,0.1853,0.1943,0.1945,0.1947,0.2011,0,0,0,0,0,0,0.1661,0.1666,0.1684,0.1683,0.1688,0.1719,0.172,0.1725,0.1758,0.1764,0.18,0.1807,0.1808,0.1859,0.1864,0.1905,0.1854,0.1941,0.1944,0.1947,0.2007,0.2015,0.2022,0,0,0,0,0,0.166,0.1671,0.1685,0.169,0.1709,0.172,0.1723,0.1743,0.1759,0.1779,0.1807,0.1808,0.188,0.1862,0.1867,0.191,0.194,0.1943,0.1946,0.2003,0.2013,0.2022,0,0,0,0,0,0,0.166,0.1677,0.1692,0.171,0.1729,0.1729,0.1749,0.1761,0.1795,0.1814,0.1822,0.1831,0.1889,0.1887,0.1867,0.1945,0.1912,0.1916,0.1953,0.1963,0.197,0.1964,0.1856,0,0,0,0,0,0.1668,0.1687,0.17,0.172,0.1733,0.1748,0.1761,0.1778,0.1799,0.1817,0.1842,0.1871,0.1898,0.1923,0.1942,0.1982,0.198,0.2014,0.2021,0.2027,0.2026,0.206,0.207,0.1959,0.1959,0.1959,0,0,0.1676,0.1687,0.17,0.1723,0.1741,0.1759,0.1761,0.1793,0.1818,0.182,0.1876,0.19,0.1914,0.1963,0.1989,0.1973,0.2061,0.2032,0.2037,0.2032,0.2064,0.2075,0.2085,0.1961,0.1961,0.196,0,0,0.1692,0.1714,0.1736,0.1753,0.1786,0.1789,0.1807,0.1833,0.1862,0.1906,0.1921,0.1968,0.2007,0.2027,0.2039,0.2097,0.2098,0.2116,0.2153,0.2187,0.2196,0.2204,0.2223,0.2232,0.2121,0.2121,0.2122,0,0.1703,0.1729,0.1745,0.1768,0.1784,0.1807,0.1833,0.1856,0.1898,0.1927,0.1939,0.2013,0.2033,0.2084,0.2112,0.2115,0.2131,0.2118,0.2196,0.2204,0.2211,0.2229,0.2238,0.2125,0.2124,0.2124,0.2124,0,0.1723,0.1758,0.1773,0.1808,0.1828,0.1855,0.1883,0.1921,0.1957,0.1982,0.2056,0.2083,0.2128,0.2149,0.2151,0.2219,0.2213,0.2201,0.2172,0.2226,0.2241,0.225,0.213,0.2129,0.2128,0.2127,0,0,0.1713,0.1775,0.1786,0.1815,0.1853,0.1869,0.1916,0.196,0.2002,0.2056,0.2111,0.217,0.22,0.2215,0.2234,0.2266,0.2339,0.2266,0.2266,0.2283,0.2415,0.2282,0.2278,0.235,0.2352,0.2353,0.2407,0,0.173,0.1773,0.1803,0.1854,0.1877,0.1915,0.1953,0.2001,0.2048,0.2107,0.2154,0.2216,0.222,0.2262,0.2297,0.2328,0.2364,0.2324,0.2361,0.2362,0.2235,0.2284,0.2359,0.2414,0.2416,0.2417,0.2418,0,0.1737,0.1765,0.1815,0.188,0.1897,0.1934,0.1999,0.2041,0.2119,0.2162,0.2229,0.2267,0.2337,0.2328,0.2406,0.2387,0.2413,0.2425,0.2427,0.2282,0.2244,0.2347,0.2433,0.2432,0.2431,0.243,0.2429,0,0.1705,0.1776,0.1815,0.1835,0.1906,0.1952,0.1995,0.2068,0.2117,0.221,0.2258,0.233,0.2385,0.2425,0.2463,0.2452,0.253,0.2512,0.2411,0.2402,0.2478,0.2468,0.2566,0.2566,0.2566,0.2566,0.2566,0,0.1686,0.1728,0.1813,0.1835,0.1893,0.1952,0.2025,0.208,0.2166,0.2217,0.2298,0.2335,0.2418,0.2468,0.2486,0.2469,0.2553,0.2419,0.2408,0.2504,0.2497,0.2484,0.2474,0.2568,0.2567,0.2567,0.2567,0,0.1641,0.1699,0.1756,0.1848,0.1884,0.1929,0.2039,0.2081,0.2178,0.2244,0.2282,0.2372,0.2425,0.2484,0.2545,0.2488,0.2489,0.2466,0.2568,0.2561,0.2334,0.2326,0.2349,0.2344,0.2341,0.2338,0.2335,0,0.1612,0.1641,0.1756,0.1793,0.1845,0.1923,0.1969,0.2075,0.211,0.2238,0.225,0.2352,0.2396,0.2362,0.2437,0.2455,0.2437,0.2419,0.2367,0.2325,0.2313,0.2311,0.2309,0.2329,0.2328,0.2328,0.2327,0,0.1558,0.1623,0.167,0.1746,0.1811,0.1864,0.1939,0.1951,0.2056,0.2167,0.2165,0.2189,0.2242,0.2267,0.2303,0.2311,0.2413,0.2381,0.2388,0.2339,0.2302,0.2293,0.2295,0.2314,0.2316,0.2317,0.2318,0,0.1525,0.1546,0.1624,0.1676,0.1754,0.1773,0.1823,0.1849,0.1896,0.2021,0.2014,0.2112,0.2206,0.2195,0.2223,0.2224,0.2197,0.2126,0.2145,0.216,0.2075,0.1999,0.1909,0,0,0,0,0,0.1472,0.1488,0.154,0.1589,0.1663,0.1706,0.1783,0.1827,0.1922,0.1875,0.1937,0.197,0.1997,0.2048,0.2014,0.2167,0.2222,0.2121,0.2155,0.2245,0.2259,0.2177,0,0,0,0,0,0,0.1438,0.1489,0.1506,0.1504,0.1522,0.1583,0.1626,0.1692,0.1661,0.1765,0.1784,0.1873,0.1927,0.2003,0.1984,0.2005,0.1991,0.2192,0.2188,0.2237,0.225,0.2261,0.2181,0,0,0,0,0]},{"header":{"parameterUnit":"m.s-1","parameterCategory":2,"la1":30.2991,"la2":30.254,"lo1":-89.0895,"lo2":-89.0444,"dy":0.0017,"dx":0.0017,"nx":28,"ny":28,"refTime":"2024-06-19T21:00:00:Z","depth":"4","parameterNumber":3,"parameterNumberName":"V-component_of_CURRENTS"},"data":[0,0,0,0,0,0,0,0,0,0,0,0,0,0,0,0,0,0,0,0,0,0,0,0,0,0,0,0,0,0,0,0,0,0,0,0,0,0,0,0,0,0,0,0,0,0,0,0,0,0,0,0,0,0,0,0,0,0,-0.0097,-0.0098,0,-0.0133,-0.0133,-0.0134,-0.014,-0.014,-0.014,-0.014,-0.0165,-0.0166,-0.0167,0,0,0,0,0,0,0,0,0,0,0,0,0,-0.006,-0.006,-0.0097,-0.0098,-0.0098,-0.0133,-0.0133,-0.0134,-0.014,-0.014,-0.014,-0.014,-0.0165,-0.0166,-0.0167,0,0,0,0,0,0,0,0,0,0,0,0,0,-0.0082,-0.0061,-0.0097,-0.0107,-0.0109,-0.0133,-0.0133,-0.0134,-0.014,-0.014,-0.014,-0.014,-0.0165,-0.0166,-0.0167,-0.0177,0,0,-0.017,-0.0171,0,0,0,0,0,0,0,0,-0.0081,-0.0083,-0.0105,-0.0107,-0.0108,-0.0134,-0.013,-0.0148,-0.014,-0.0126,-0.014,-0.014,-0.0155,-0.0157,-0.0161,-0.0178,-0.0179,-0.017,-0.0171,-0.0172,-0.0172,0,0,0,0,0,0,0,-0.0079,-0.0082,-0.0109,-0.0106,-0.0108,-0.0119,-0.0122,-0.0133,-0.0139,-0.0127,-0.0128,-0.0136,-0.0156,-0.016,-0.0162,-0.018,-0.017,-0.0171,-0.0172,-0.0173,-0.0217,-0.0217,0,0,0,0,0,0,-0.0078,-0.008,-0.0108,-0.011,-0.0096,-0.012,-0.0123,-0.0124,-0.0139,-0.0142,-0.0136,-0.0136,-0.0158,-0.0161,-0.0163,-0.0162,-0.0172,-0.0173,-0.0173,-0.0216,-0.0217,-0.0218,0,0,0,0,0,0,-0.0077,-0.008,-0.0107,-0.0098,-0.0103,-0.0121,-0.0122,-0.0125,-0.0134,-0.0146,-0.0149,-0.0143,-0.0158,-0.0161,-0.0177,-0.0164,-0.0173,-0.0174,-0.0216,-0.0217,-0.0217,-0.017,0,0,0,0,0,0,-0.0075,-0.0079,-0.008,-0.0098,-0.0103,-0.0119,-0.0123,-0.0126,-0.014,-0.014,-0.0153,-0.0155,-0.0158,-0.0175,-0.0178,-0.0166,-0.0175,-0.0215,-0.0216,-0.0217,-0.0171,-0.0169,-0.0168,0,0,0,0,0,-0.0074,-0.0075,-0.0079,-0.0083,-0.0103,-0.012,-0.0123,-0.0134,-0.014,-0.0142,-0.0155,-0.0155,-0.0183,-0.0177,-0.018,-0.0167,-0.0215,-0.0216,-0.0217,-0.0172,-0.017,-0.0168,0,0,0,0,0,0,-0.0057,-0.0076,-0.0082,-0.0088,-0.0103,-0.0121,-0.0127,-0.0138,-0.015,-0.0151,-0.0162,-0.0165,-0.0176,-0.0186,-0.0179,-0.0187,-0.0199,-0.0201,-0.0164,-0.0162,-0.016,-0.0145,-0.0176,0,0,0,0,0,-0.0055,-0.0062,-0.0081,-0.0086,-0.0092,-0.0111,-0.012,-0.0129,-0.0144,-0.0149,-0.0159,-0.0172,-0.0183,-0.0184,-0.0199,-0.0201,-0.0215,-0.0198,-0.0196,-0.0194,-0.0187,-0.02,-0.0198,-0.0221,-0.0221,-0.0221,0,0,-0.0051,-0.0062,-0.0067,-0.0083,-0.0095,-0.0095,-0.0115,-0.0129,-0.0125,-0.015,-0.0149,-0.0171,-0.0187,-0.0188,-0.0193,-0.0192,-0.0198,-0.0196,-0.0193,-0.0187,-0.0201,-0.0199,-0.0196,-0.0222,-0.0222,-0.0222,0,0,-0.0039,-0.0055,-0.0052,-0.0062,-0.0081,-0.0091,-0.0096,-0.0116,-0.0119,-0.0129,-0.0145,-0.0157,-0.0176,-0.0175,-0.0179,-0.018,-0.0196,-0.0191,-0.0157,-0.017,-0.0168,-0.0166,-0.0187,-0.0188,-0.0181,-0.018,-0.018,0,-0.003,-0.0029,-0.0054,-0.0051,-0.0054,-0.0086,-0.0078,-0.0087,-0.0109,-0.0107,-0.0123,-0.015,-0.0163,-0.0157,-0.0156,-0.0171,-0.019,-0.0157,-0.0165,-0.0163,-0.0162,-0.0185,-0.0186,-0.0178,-0.0179,-0.0179,-0.0179,0,-0.0013,-0.0012,-0.0012,-0.0014,-0.0022,-0.0025,-0.004,-0.0043,-0.0058,-0.0068,-0.0078,-0.0105,-0.0115,-0.0124,-0.0137,-0.0134,-0.0155,-0.0166,-0.0163,-0.0156,-0.0182,-0.0183,-0.0175,-0.0176,-0.0177,-0.0177,0,0,0.0015,0.0004,0.0006,0.0014,-0.0003,-0.0005,0.0004,0.0005,0.0017,-0.0013,-0.0001,-0.0028,-0.0052,-0.006,-0.0083,-0.0092,-0.0102,-0.0121,-0.0123,-0.0129,-0.0141,-0.017,-0.0175,-0.0116,-0.0115,-0.0115,-0.0164,0,0.0042,0.0056,0.0046,0.0064,0.007,0.0054,0.007,0.0065,0.0053,0.0054,0.0023,0.0014,-0.0024,-0.0031,-0.0047,-0.0088,-0.0104,-0.0088,-0.0158,-0.0161,-0.0175,-0.0177,-0.0115,-0.0166,-0.0166,-0.0166,-0.0167,0,0.0068,0.0073,0.0095,0.0109,0.0113,0.0123,0.0141,0.0148,0.0141,0.0136,0.0116,0.0079,0.0058,0.002,-0.0041,-0.0032,-0.0082,-0.0119,-0.0122,-0.0164,-0.0192,-0.0175,-0.017,-0.017,-0.017,-0.0169,-0.0169,0,0.0096,0.0112,0.0131,0.0132,0.0142,0.0161,0.0169,0.0172,0.0188,0.0179,0.0185,0.0142,0.0124,0.0058,-0.0029,-0.0034,-0.0104,-0.0118,-0.0194,-0.0197,-0.0176,-0.0178,-0.0164,-0.0163,-0.0163,-0.0163,-0.0163,0,0.0122,0.0139,0.0146,0.0154,0.0191,0.0188,0.0225,0.0233,0.0246,0.0264,0.0222,0.0222,0.0131,0.0073,-0.001,-0.0109,-0.0091,-0.0189,-0.0209,-0.0158,-0.0157,-0.0178,-0.0179,-0.0165,-0.0165,-0.0164,-0.0164,0,0.0138,0.0142,0.0166,0.0188,0.02,0.0222,0.026,0.0284,0.0298,0.0319,0.0318,0.0284,0.0208,0.0106,-0.0,-0.0079,-0.0173,-0.0215,-0.0156,-0.0173,-0.0263,-0.0261,-0.0298,-0.0299,-0.03,-0.0301,-0.0302,0,0.0142,0.0155,0.0187,0.0205,0.0215,0.0249,0.0276,0.0305,0.0328,0.0353,0.0362,0.0308,0.0263,0.0105,-0.0009,-0.0172,-0.0202,-0.0255,-0.0258,-0.0259,-0.0276,-0.0272,-0.0269,-0.0304,-0.0304,-0.0304,-0.0305,0,0.015,0.0163,0.018,0.0217,0.0247,0.0284,0.0322,0.035,0.038,0.0398,0.0398,0.0317,0.0232,0.0103,-0.0028,-0.0145,-0.022,-0.0267,-0.0266,-0.027,-0.0267,-0.0281,-0.0277,-0.0309,-0.0308,-0.0308,-0.0307,0,0.0155,0.0167,0.0192,0.0224,0.0262,0.0298,0.0326,0.0356,0.0386,0.0414,0.0411,0.0331,0.0289,0.0116,-0.0002,-0.0123,-0.0158,-0.0203,-0.0206,-0.0203,-0.0168,-0.015,-0.0171,0,0,0,0,0,0.0154,0.0164,0.0196,0.0229,0.0267,0.0287,0.0344,0.0371,0.0407,0.0409,0.0414,0.0334,0.0175,0.0117,-0.001,-0.0045,-0.0196,-0.0201,-0.0252,-0.0331,-0.0326,-0.0305,0,0,0,0,0,0,0.015,0.0174,0.0189,0.0223,0.0243,0.0286,0.032,0.035,0.0357,0.0383,0.0308,0.0284,0.0134,0.0243,-0.0018,-0.0053,-0.0108,-0.0267,-0.0271,-0.0333,-0.0329,-0.0325,-0.0302,0,0,0,0,0]}]]